Regional Weather Roundup
Issued by NWS

Home | Current Version | Previous Version | Text Only | Print | Product List | Glossary Off
Versions: 1 2 3 4 5 6 7 8 9 10 11 12 13 14 15 16 17 18 19 20 21 22 23 24 25 26 27 28 29 30 31 32 33 34 35 36 37 38 39 40 41 42 43 44 45 46 47 48 49 50

000
ASUS45 KCYS 280910
RWRWY

WYOMING REGIONAL WEATHER ROUNDUP
NATIONAL WEATHER SERVICE CHEYENNE WY
200 AM MST WED JAN 28 2015

NOTE:  "FAIR" INDICATES FEW OR NO CLOUDS BELOW 12,000 FEET
WITH NO SIGNIFICANT WEATHER AND/OR OBSTRUCTIONS TO VISIBILITY.

WYZ001-281000-
YELLOWSTONE NATIONAL PARK

CITY           SKY/WX    TMP DP  RH WIND       PRES   REMARKS
LK YELLOWSTONE   N/A     30  29  96 CALM      30.12F
W YELLOWSTONE  NOT AVBL

$$
WYZ002>013-054>058-071-098>099-281000-
NORTHERN WYOMING

CITY           SKY/WX    TMP DP  RH WIND       PRES   REMARKS
JACKSON        CLOUDY    32  32 100 S6        30.11F WCI  26
CODY           CLOUDY    48  30  49 NW8       29.97R
GREYBULL       CLOUDY    30  28  92 NW5       29.96S WCI  25
WORLAND        MOCLDY    28  25  88 VRB6      29.95F WCI  22
SHERIDAN       CLOUDY    47  29  49 VRB6      29.87S
BUFFALO        CLOUDY    47  26  44 SW6       29.90S
GILLETTE       FAIR      42  29  59 W6        29.88R
HULETT           N/A    N/A N/A N/A MISG        N/A
NEWCASTLE      FAIR      34  28  80 N9        29.90S WCI  26

$$
WYZ014>020-022>026-101>103-281000-
CENTRAL WYOMING

CITY           SKY/WX    TMP DP  RH WIND       PRES   REMARKS
BIG PINEY      FAIR      22  19  89 CALM      30.15S
PINEDALE       PTSUNNY   19  19 100 CALM      30.16S
DUBOIS         PTSUNNY   36  28  75 NW15      30.07R WCI  26
LANDER         FAIR      42  25  50 VRB5      30.00F
RIVERTON       FAIR      34  27  75 SW7       30.02S WCI  28
CASPER         FAIR      38  28  67 S12       30.01F WCI  30
DOUGLAS        FAIR      49  28  44 W20G36    29.97R

$$
WYZ021-027>030-104>119-281000-
SOUTHERN WYOMING

CITY           SKY/WX    TMP DP  RH WIND       PRES   REMARKS
EVANSTON       MOCLDY    33  28  81 SW7       30.19R WCI  27
KEMMERER       CLOUDY    32  32 100 SW6       30.17F FOG     WCI  26
FORT BRIDGER   FAIR      34  33  96 SW5       30.20F WCI  30
ROCK SPRINGS   FAIR      31  27  85 W9        30.17R WCI  23
DIXON          FAIR      38  34  87 SW9       30.21F WCI  31
RAWLINS        CLOUDY    37  31  78 W16       30.14S WCI  28
SARATOGA       CLOUDY    37  32  81 W8        30.16S WCI  31
LARAMIE        MOCLDY    37  30  75 SW14      30.09F WCI  28
CHEYENNE       FAIR      47  27  45 W20G28    30.01S
TORRINGTON     FAIR      49  32  52 NW13      29.96R
PINE BLUFFS    FAIR      46  28  49 NW17      29.99R

$$


USA.gov is the U.S. government's official web portal to all federal, state and local government web resources and services.